Location: Vinland
(47.7731°N, 122.6974°W)
Time: 13:28:09
(UTC+00:00)

BlueWalker 3 - Visible Passes

Search period start: 29 January 2023 00:00
Search period end: 08 February 2023 00:00
Orbit: 499 x 517 km, 53.2° (Epoch: 28 January)

Date Brightness Start Highest point End Pass type
(mag) Time Alt. Az. Time Alt. Az. Time Alt. Az.
29 Jan 1.9 02:35:11 10° WSW 02:39:04 85° NNW 02:40:49 31° ENE visible
29 Jan 4.6 04:14:23 10° WNW 04:15:37 18° WNW 04:15:37 18° WNW visible
30 Jan 1.9 02:16:17 10° WSW 02:20:09 82° NNW 02:22:47 20° ENE visible
30 Jan 4.0 03:55:30 10° WNW 03:57:35 26° NW 03:57:35 26° NW visible
31 Jan 2.0 01:57:22 10° WSW 02:01:14 79° NNW 02:04:42 13° ENE visible
31 Jan 3.3 03:36:35 10° WNW 03:39:30 34° NNW 03:39:30 34° NNW visible
01 Feb 2.0 01:38:25 10° WSW 01:42:17 76° NNW 01:46:12 10° ENE visible
01 Feb 2.9 03:17:40 10° WNW 03:21:18 37° N 03:21:23 37° N visible
02 Feb 2.9 02:58:44 10° WNW 03:02:22 36° N 03:03:14 32° NNE visible
02 Feb 5.2 04:37:45 10° WNW 04:38:02 12° WNW 04:38:02 12° WNW visible
03 Feb 2.9 02:39:47 10° WNW 02:43:25 36° N 02:45:05 24° NE visible
03 Feb 4.6 04:18:47 10° WNW 04:19:52 18° NW 04:19:52 18° NW visible
04 Feb 2.9 02:20:50 10° WNW 02:24:27 36° N 02:26:55 18° NE visible
04 Feb 3.9 03:59:48 10° WNW 04:01:42 26° NW 04:01:42 26° NW visible
05 Feb 2.9 02:01:51 10° WNW 02:05:28 36° N 02:08:46 12° ENE visible
05 Feb 3.1 03:40:49 10° WNW 03:43:33 38° NNW 03:43:33 38° NNW visible
06 Feb 2.3 03:21:48 10° WNW 03:25:25 52° N 03:25:25 52° N visible
07 Feb 2.2 03:02:47 10° WNW 03:06:36 54° NNE 03:07:20 46° ENE visible
07 Feb 5.1 04:41:31 10° WNW 04:42:07 14° WNW 04:42:07 14° WNW visible
